This demonstration page uses our WeatherBlox Daily Observations layout. Learn more.

Left ArrowRight Arrow

44.89941, -97.11507

Hourly Observations for December 1, 2022

Temp ( °F °C ) Dew Point ( °F °C ) Humidity (%) Winds ( mph kmh ) Pressure ( in mb ) Visibility ( mi km ) Precip ( " mm )
12:53 am 00:53 Clear 13 -10.6 7 -13.9 77 77 SSE 9 15 30.23 1024 10 16 0.00 0.00
1:53 am 01:53 Clear 14 -10 8 -13.3 77 77 SSE 12 19 30.18 1022 10 16 0.00 0.00
2:53 am 02:53 Clear 16 -8.9 8 -13.3 70 70 SSE 17 28 30.14 1021 10 16 0.00 0.00
3:53 am 03:53 Clear 18 -7.8 9 -12.8 67 67 SSE 20 31 30.09 1019 10 16 0.00 0.00
4:53 am 04:53 Clear 18 -7.8 9 -12.8 67 67 SSE 17 28 30.06 1018 10 16 0.00 0.00
5:53 am 05:53 Clear 19 -7.2 11 -11.7 70 70 SSE 23 37 30.00 1016 10 16 0.00 0.00
6:53 am 06:53 Clear 20 -6.7 12 -11.1 71 71 S 22 35 29.97 1015 10 16 0.00 0.00
7:53 am 07:53 Sunny 21 -6.1 13 -10.6 70 70 SSE 26 43 29.92 1013 10 16 0.00 0.00
8:53 am 08:53 Sunny 25 -3.9 15 -9.4 65 65 S 26 43 29.92 1013 10 16 0.00 0.00
9:53 am 09:53 Sunny 28 -2.2 16 -8.9 60 60 S 24 39 29.90 1013 10 16 0.00 0.00
10:53 am 10:53 Sunny 30 -1.1 18 -7.8 60 60 S 22 35 29.88 1012 10 16 0.00 0.00
11:53 am 11:53 Sunny 32 0 18 -7.8 56 56 S 21 33 29.84 1010 10 16 0.00 0.00
12:53 pm 12:53 Sunny 35 1.7 20 -6.7 54 54 S 24 39 29.80 1009 10 16 0.00 0.00
1:53 pm 13:53 Sunny 33 0.6 20 -6.7 58 58 S 22 35 29.80 1009 10 16 0.00 0.00
2:53 pm 14:53 Sunny 34 1.1 21 -6.1 59 59 S 12 19 29.78 1009 10 16 0.00 0.00
3:53 pm 15:53 Sunny 34 1.1 22 -5.6 61 61 S 13 20 29.78 1008 10 16 0.00 0.00
4:53 pm 16:53 Clear 32 0 23 -5 69 69 S 10 17 29.77 1008 10 16 0.00 0.00
5:53 pm 17:53 Clear 31 -0.6 23 -5 72 72 S 8 13 29.75 1008 10 16 0.00 0.00
7:53 pm 19:53 Clear 30 -1.1 24 -4.4 78 78 S 13 20 29.73 1007 10 16 0.00 0.00
8:53 pm 20:53 Clear 29 -1.7 24 -4.4 82 82 SSE 14 22 29.70 1006 10 16 0.00 0.00
9:53 pm 21:53 Clear 29 -1.7 25 -3.9 85 85 SSE 14 22 29.67 1005 10 16 0.00 0.00
10:53 pm 22:53 Clear 31 -0.6 25 -3.9 78 78 SSE 14 22 29.63 1003 10 16 0.00 0.00
11:53 pm 23:53 Clear 30 -1.1 25 -3.9 81 81 SSE 14 22 29.59 1002 10 16 0.00 0.00

Powered by AerisWeather